Weather History for Hobbs, NM

Change the Weather History Date:

Sunday, January 27, 2013

  Actual Average Record
Temperature  
Mean Temperature 58 °F -  
Max Temperature 69 °F 56 °F 75 °F (2002)
Min Temperature 46 °F 30 °F 19 °F (1950)
Degree Days  
Heating Degree Days 8    
Growing Degree Days 8 (Base 50)    
Moisture  
Dew Point 42 °F    
Average Humidity 65    
Maximum Humidity 100    
Minimum Humidity 30    
Precipitation  
Precipitation 0.00 in - - ()
Sea Level Pressure  
Sea Level Pressure 29.98 in    
Wind  
Wind Speed 10 mph (SW)    
Max Wind Speed 25 mph    
Max Gust Speed 33 mph    
Visibility 8 miles    
Events Fog    
Averages and records for this station are not official NWS values.
T = Trace of Precipitation, MM = Missing Value Source: NWS Daily Summary

Daily Weather History Graph

Daily Weather History Graph

Search for Another Location

Airport:

Trip Planner

Search our weather history database for the weather conditions in past years. The results will help you decide how hot, cold, wet, or windy it might be!

Date:

Astronomy

Jan. 27, 2013 Rise Set
Actual Time 6:50 AM MST 5:21 PM MST
Civil Twilight 6:24 AM MST 5:47 PM MST
Nautical Twilight 5:54 AM MST 6:17 PM MST
Astronomical Twilight 5:25 AM MST 6:46 PM MST
Moon 6:11 PM MST (1/27) 6:49 AM MST (1/27)
Length of Visible Light 11h 22m
Length of Day
10h 30m
Full, 100% of the Moon is Illuminated
Jan 27
Full
Feb 3
Last Quarter
Feb 10
New
Feb 17
First Quarter
Feb 25
Full

Hourly Weather History & Observations

Time (MST) Temp. Dew Point Humidity Pressure Visibility Wind Dir Wind Speed Gust Speed Precip Events Conditions
12:15 AM 55.4 °F 53.6 °F 94% 30.01 in 5.0 mi South 10.4 mph - N/A   Overcast
12:35 AM 55.4 °F 53.6 °F 94% 30.00 in 5.0 mi SSE 13.8 mph - N/A   Overcast
12:55 AM 55.4 °F 53.6 °F 94% 30.00 in 3.0 mi South 11.5 mph - N/A   Overcast
1:15 AM 55.4 °F 55.4 °F 100% 30.00 in 3.0 mi South 10.4 mph - N/A   Overcast
1:35 AM 55.4 °F 55.4 °F 100% 30.01 in 3.0 mi South 10.4 mph - N/A   Overcast
2:15 AM 55.4 °F 55.4 °F 100% 30.00 in 2.5 mi South 9.2 mph - N/A   Mostly Cloudy
2:35 AM 55.4 °F 55.4 °F 100% 30.00 in 2.0 mi South 8.1 mph - N/A   Mostly Cloudy
2:55 AM 53.6 °F 53.6 °F 100% 30.00 in 2.0 mi South 5.8 mph - N/A   Mostly Cloudy
3:15 AM 53.6 °F 53.6 °F 100% 29.99 in 1.8 mi Calm Calm - N/A   Overcast
3:35 AM 53.6 °F 53.6 °F 100% 29.99 in 1.2 mi Calm Calm - N/A   Mostly Cloudy
3:55 AM 53.6 °F 53.6 °F 100% 29.99 in 0.8 mi South 4.6 mph - N/A   Overcast
5:50 AM 50.0 °F 50.0 °F 100% 29.98 in 0.2 mi Calm Calm - N/A Fog Fog
7:08 AM 50.0 °F 50.0 °F 100% 30.00 in 0.2 mi Calm Calm - N/A Fog Fog
7:50 AM 50.0 °F 50.0 °F 100% 30.01 in 0.1 mi Calm Calm - N/A Fog Fog
8:20 AM 53.6 °F 53.6 °F 100% 30.01 in 6.0 mi SSW 8.1 mph - N/A   Clear
8:50 AM 55.4 °F 55.4 °F 100% 30.02 in 10.0 mi SSW 8.1 mph - N/A   Clear
9:50 AM 64.4 °F 42.8 °F 45% 30.02 in 10.0 mi SW 17.3 mph 23.0 mph N/A   Clear
10:50 AM 66.2 °F 41.0 °F 40% 30.00 in 10.0 mi SW 17.3 mph 23.0 mph N/A   Clear
11:50 AM 68.0 °F 37.4 °F 33% 29.98 in 10.0 mi SW 23.0 mph 32.2 mph N/A   Clear
12:50 PM 69.8 °F 37.4 °F 31% 29.95 in 10.0 mi SW 25.3 mph 33.4 mph N/A   Scattered Clouds
1:50 PM 66.2 °F 37.4 °F 35% 29.93 in 10.0 mi SW 17.3 mph 24.2 mph N/A   Scattered Clouds
2:50 PM 68.0 °F 35.6 °F 30% 29.93 in 10.0 mi SW 23.0 mph 29.9 mph N/A   Scattered Clouds
3:50 PM 66.2 °F 35.6 °F 32% 29.93 in 10.0 mi SW 18.4 mph 24.2 mph N/A   Partly Cloudy
5:15 PM 64.4 °F 35.6 °F 34% 29.95 in 10.0 mi WSW 10.4 mph - N/A   Mostly Cloudy
5:35 PM 62.6 °F 35.6 °F 37% 29.95 in 10.0 mi WSW 11.5 mph - N/A   Mostly Cloudy
5:45 PM 62.6 °F 35.6 °F 37% 29.95 in 10.0 mi SW 12.7 mph - N/A   Partly Cloudy
5:55 PM 60.8 °F 35.6 °F 39% 29.95 in 10.0 mi WSW 13.8 mph - N/A   Partly Cloudy
6:15 PM 60.8 °F 35.6 °F 39% 29.96 in 10.0 mi WSW 18.4 mph - N/A   Clear
6:35 PM 59.0 °F 35.6 °F 42% 29.97 in 10.0 mi WSW 13.8 mph - N/A   Clear
6:55 PM 59.0 °F 35.6 °F 42% 29.98 in 10.0 mi West 10.4 mph - N/A   Clear
7:15 PM 55.4 °F 35.6 °F 47% 29.98 in 10.0 mi WSW 11.5 mph - N/A   Clear
7:35 PM 57.2 °F 37.4 °F 48% 29.98 in 10.0 mi West 12.7 mph - N/A   Clear
7:55 PM 57.2 °F 37.4 °F 48% 29.98 in 10.0 mi West 10.4 mph - N/A   Clear
8:15 PM 55.4 °F 37.4 °F 51% 29.98 in 10.0 mi West 9.2 mph - N/A   Clear
8:35 PM 53.6 °F 35.6 °F 51% 29.97 in 10.0 mi West 9.2 mph - N/A   Clear
8:55 PM 53.6 °F 35.6 °F 51% 29.97 in 10.0 mi West 10.4 mph - N/A   Clear
9:15 PM 55.4 °F 35.6 °F 47% 29.97 in 10.0 mi West 9.2 mph - N/A   Clear
9:35 PM 55.4 °F 35.6 °F 47% 29.96 in 10.0 mi West 10.4 mph - N/A   Clear
9:55 PM 53.6 °F 35.6 °F 51% 29.96 in 10.0 mi West 10.4 mph - N/A   Clear
10:15 PM 53.6 °F 35.6 °F 51% 29.97 in 10.0 mi Calm Calm - N/A   Clear
10:35 PM 48.2 °F 35.6 °F 62% 29.98 in 10.0 mi Calm Calm - N/A   Clear
10:55 PM 46.4 °F 35.6 °F 66% 29.99 in 10.0 mi Calm Calm - N/A   Clear
11:15 PM 46.4 °F 35.6 °F 66% 29.98 in 10.0 mi Calm Calm - N/A   Clear
11:35 PM 46.4 °F 35.6 °F 66% 29.98 in 10.0 mi Calm Calm - N/A   Clear
11:55 PM 46.4 °F 35.6 °F 66% 29.98 in 10.0 mi Calm Calm - N/A   Clear